Location: Bremen
(53.0793°N, 8.8017°E)
Time: 01:53:26
(UTC+01:00)

Vanguard 3 - Visible Passes

Search period start: 07 December 2021 00:00
Search period end: 17 December 2021 00:00
Orbit: 508 x 3260 km, 33.4° (Epoch: 06 December)

Date Brightness Start Highest point End Pass type
(mag) Time Alt. Az. Time Alt. Az. Time Alt. Az.
07 Dec 11.0 01:52:35 22° SE 01:52:35 22° SE 02:04:12 10° ESE visible
07 Dec 10.7 03:57:08 28° SSW 04:04:29 36° SSE 04:19:13 10° ESE visible
07 Dec 10.6 06:01:40 11° WSW 06:18:07 37° S 06:31:03 10° SE visible
08 Dec 11.4 00:42:31 12° ESE 00:42:31 12° ESE 00:45:12 10° ESE visible
08 Dec 10.7 02:47:03 31° SSE 02:48:36 31° SSE 03:03:31 10° ESE visible
08 Dec 10.6 04:51:35 24° SW 05:02:15 39° S 05:16:48 10° ESE visible
08 Dec 10.7 06:59:59 10° WSW 07:15:29 32° SSW 07:27:17 10° SSE visible
09 Dec 11.0 01:36:55 23° SE 01:36:55 23° SE 01:46:43 10° E visible
09 Dec 10.6 03:41:27 34° SSW 03:46:12 37° SSE 04:01:46 10° ESE visible
09 Dec 10.6 05:45:58 16° WSW 05:59:58 37° SSW 06:13:44 10° SE visible
10 Dec 11.4 00:26:43 11° ESE 00:26:43 11° ESE 00:28:01 10° ESE visible
10 Dec 10.7 02:31:14 33° SSE 02:31:14 33° SSE 02:45:53 10° ESE visible
10 Dec 10.6 04:35:47 29° SW 04:44:00 40° S 04:59:19 10° ESE visible
10 Dec 10.7 06:41:40 10° WSW 06:57:21 32° SSW 07:09:53 10° SSE visible
11 Dec 11.1 01:21:01 22° ESE 01:21:01 22° ESE 01:28:58 10° E visible
11 Dec 10.5 03:25:33 37° S 03:27:53 38° S 03:44:07 10° ESE visible
11 Dec 10.6 05:30:04 21° WSW 05:41:44 37° SSW 05:56:15 10° SE visible
11 Dec 11.0 07:41:13 10° W 07:54:14 23° SW 08:04:50 10° S visible
12 Dec 10.7 02:15:17 32° SE 02:15:17 32° SE 02:28:03 10° ESE visible
12 Dec 10.5 04:19:48 34° SSW 04:25:41 40° S 04:41:42 10° ESE visible
12 Dec 10.8 06:24:20 12° WSW 06:39:07 31° SSW 06:52:18 10° SSE visible
13 Dec 11.1 01:05:00 20° ESE 01:05:00 20° ESE 01:11:01 10° E visible
13 Dec 10.5 03:09:31 39° S 03:09:32 39° S 03:26:17 10° ESE visible
13 Dec 10.6 05:14:03 25° SW 05:23:25 37° SSW 05:38:34 10° SE visible
13 Dec 11.0 07:23:10 10° W 07:36:00 22° SW 07:46:58 10° S visible
14 Dec 10.8 01:59:14 30° SE 01:59:14 30° SE 02:10:02 10° ESE visible
14 Dec 10.4 04:03:46 37° SSW 04:07:21 40° S 04:23:52 10° SE visible
14 Dec 10.8 06:08:17 15° WSW 06:20:49 30° SSW 06:34:29 10° SSE visible
15 Dec 11.2 00:48:57 17° ESE 00:48:57 17° ESE 00:52:53 10° E visible
15 Dec 10.5 02:53:28 38° SSE 02:53:28 38° SSE 03:08:17 10° ESE visible
15 Dec 10.6 04:57:59 29° SW 05:05:04 36° SSW 05:20:40 10° SE visible
15 Dec 11.1 07:05:19 10° W 07:17:42 21° SW 07:28:48 10° S visible
16 Dec 10.9 01:43:11 27° SE 01:43:11 27° SE 01:51:51 10° ESE visible
16 Dec 10.4 03:47:42 39° SSW 03:49:00 39° S 04:05:49 10° SE visible
16 Dec 10.8 05:52:14 18° WSW 06:02:28 29° SSW 06:16:24 10° SSE visible
